Location: Unspecified
(0.0000°N, 0.0000°E)
Time: 21:21:16
(UTC+01:00)

ISS - All Passes

Search period start: 29 January 2015 00:00
Search period end: 08 February 2015 00:00
Orbit: 401 x 408 km, 51.6° (Epoch: 29 January)

Date Brightness Start Highest point End Pass type
(mag) Time Alt. Az. Time Alt. Az. Time Alt. Az.
29 Jan - 08:35:36 10° NW 08:38:41 37° SW 08:41:44 10° SSE daylight
29 Jan - 20:09:23 10° SW 20:12:37 67° NW 20:15:50 10° NNE visible
30 Jan - 07:43:14 10° NNW 07:46:30 67° NE 07:49:45 10° SE daylight
30 Jan - 19:17:22 10° SSW 19:20:25 37° SE 19:23:28 10° NE daylight
31 Jan - 06:51:38 10° N 06:54:16 23° NE 06:56:58 10° ESE daylight
31 Jan - 08:29:55 10° WSW 08:30:41 10° SW 08:31:14 10° SW daylight
31 Jan - 18:26:21 10° SSE 18:28:08 14° SE 18:30:04 10° E daylight
31 Jan - 20:02:21 10° W 20:04:31 16° NW 20:06:36 10° NNW visible
01 Feb - 07:35:31 10° WNW 07:38:21 26° SW 07:41:09 10° S daylight
01 Feb - 19:09:07 10° SW 19:12:14 44° NW 19:15:20 10° NNE daylight
02 Feb - 06:42:49 10° NW 06:46:05 80° SW 06:49:22 10° SSE visible
02 Feb - 18:16:48 10° SSW 18:20:00 56° SE 18:23:10 10° NE daylight
03 Feb - 05:50:51 10° N 05:53:49 32° NE 05:56:49 10° ESE visible
03 Feb - 17:25:16 10° S 17:27:41 20° SE 17:30:09 10° ENE daylight
03 Feb - 19:02:42 10° WNW 19:04:03 12° NW 19:05:16 10° NNW daylight
04 Feb - 05:00:01 10° NNE 05:01:27 13° NE 05:03:03 10° E visible
04 Feb - 06:35:22 10° WNW 06:37:50 19° SW 06:40:13 10° S visible
04 Feb - 18:08:46 10° WSW 18:11:41 30° NW 18:14:34 10° N daylight
05 Feb - 05:42:17 10° NW 05:45:28 53° SW 05:48:41 10° SSE visible
05 Feb - 17:16:06 10° SW 17:19:21 85° SE 17:22:35 10° NE daylight
06 Feb - 04:49:59 10° NNW 04:53:09 46° NE 04:56:19 10° SE visible
06 Feb - 16:24:12 10° S 16:27:00 27° SE 16:29:50 10° ENE daylight
07 Feb - 03:58:33 10° N 04:00:45 17° NE 04:03:03 10° E night (unlit)
07 Feb - 05:35:15 10° W 05:37:08 14° SW 05:38:53 10° SSW visible
07 Feb - 15:33:51 10° SE 15:34:33 11° SE 15:35:25 10° ESE daylight
07 Feb - 17:08:20 10° WSW 17:10:56 22° NW 17:13:29 10° N daylight
